Погода в Унэгэтэе

Россия / Республика Бурятия     52˚05′57″N   108˚33′55″E
темп.,
°C
ветер,
м/с
пор.,
м/с
влажн.,
%
обл.,
%
осадки,
мм/ч
давл.,
гПа
погр.,
м
18 января, пн
пн1823:00−27˚св228644 0.0 102919
02:00−27˚св228852 0.0 102938
05:00−27˚св3490100 0.0 1028157
08:00−26˚св2494100 0.0 1026214
11:00−25˚св2389100 0.1 1025267
14:00−22˚всв1189100 0.2 1023289
17:00−25˚всв019899 0.1 102220
20:00−25˚ссз009999 0.1 102219
19 января, вт
вт1923:00−26˚в0010099 0.0 102219
02:00−26˚св1110099 0.1 102019
05:00−26˚св119866 0.0 101919
08:00−26˚ссв119867 0.0 101819
11:00−22˚св119294 0.0 1016131
14:00−18˚всв008497 0.0 1013165
17:00−21˚зюз119464 0.0 101520
20:00−20˚юз119565 0.0 101820
20 января, ср
ср2023:00−18˚ю1194100 0.0 102020
02:00−20˚ююз119898 0.0 102120
05:00−17˚юв1198100 0.6 102121
08:00−18˚юз1198100 0.8 102220
11:00−16˚всв009194 0.0 102193
14:00−13˚всв118596 0.0 1019243
17:00−17˚ссв119597 0.0 101920
20:00−19˚ссз019696 0.0 102220
21 января, чт
чт2123:00−17˚зюз129491 0.1 102622
02:00−19˚зюз229593 0.1 102920
05:00−20˚зюз339468 0.1 103126
08:00−23˚юз239234 0.1 103330
11:00−20˚юз12840 0.0 1031188
14:00−16˚зюз24760 0.0 1029425
17:00−20˚зсз01922 0.0 102920
20:00−23˚ссв01941 0.0 103020
22 января, пт
пт2223:00−24˚ссв119515 0.0 102920
02:00−23˚св129656 0.0 102820
05:00−23˚ссв2296100 0.0 102526
08:00−23˚ссв2295100 0.0 102423
11:00−20˚св128975 0.0 1022189
14:00−17˚св128370 0.0 1018297
17:00−20˚ссв119550 0.0 101720
20:00−21˚ссв229451 0.0 101620